Location: downtown San Diego
(32.7310°N, 117.1990°W)
Time: 20:07:06
(UTC-08:00)

ASTRO E2 - Pass Details

Date: 19 May 2017
Orbit: 514 x 520 km, 31.4° (Epoch: 24 November)

Event Time Altitude Azimuth Distance (km) Brightness Sun altitude
Rises 20:35:17 0° 240° (WSW) 2,607 6.7 -10.4°
Reaches altitude 10° 20:37:36 10° 232° (SW) 1,722 5.6 -10.8°
Maximum altitude 20:41:19 39° 163° (SSE) 774 3.2 -11.4°
Enters shadow 20:44:05 16° 100° (E) 1,382 4.3 -11.9°
